Voltar ao catálogo

CZ-6A DEB

AtivoPO
NORAD 61163·DEBRIS·🇨🇳 China

Lançado Aug 6, 2024 de Taiyuan Satellite Launch Center

Loading…

Próximas Passagens (próximas 24 horas)

TLE

AtualizadoSource: Space-Track

Época: Sep 13, 2026, 09:21 UTC

1 61163U 24140RH  26256.38985221  .00101448  00000-0  18571-2 0  9999
2 61163  88.6801 219.4345 0069080  66.7154 294.1356 15.46326371113373

Acompanhe CZ-6A DEB em tempo real com AllMySat

Download on the App Store